When you browse on this site, cookies collect data to enhance your experience and personalize the content and advertising you see.
Visit our Privacy Policy to learn more. By continuing to use the site, you agree to this use of cookies and data.
  • In Latvia
  • List of Countries
  • For 7 days
  • Water Temperature
  • Weather Map
  • Weather Widgets
  • user-avatar
    Login

    Hourly Weather Abay

    Today, 7 April, Tuesday

    Time Temperature Precipitation Wind Pressure Humidity
    00:00 +15°C° 0 mm 1 mps 715 mmHg 70%
    01:00 +15°C° 0 mm 2 mps 715 mmHg 70%
    02:00 +14°C° 0 mm 2 mps 714 mmHg 70%
    03:00 +14°C° 0 mm 2 mps 715 mmHg 69%
    04:00 +14°C° 0 mm 2 mps 715 mmHg 68%
    05:00 +14°C° 0 mm 2 mps 715 mmHg 70%
    06:00 +16°C° 0 mm 3 mps 715 mmHg 62%
    07:00 +18°C° 0 mm 3 mps 716 mmHg 55%
    08:00 +19°C° 0 mm 3 mps 716 mmHg 48%
    09:00 +20°C° 0 mm 4 mps 716 mmHg 45%
    10:00 +22°C° 0 mm 6 mps 716 mmHg 43%
    11:00 +23°C° 0 mm 8 mps 717 mmHg 43%
    12:00 +22°C° 0.1 mm 9 mps 716 mmHg 44%
    13:00 +22°C° 0.1 mm 10 mps 716 mmHg 46%
    14:00 +21°C° 0.1 mm 10 mps 716 mmHg 47%
    15:00 +19°C° 0 mm 10 mps 717 mmHg 47%
    16:00 +18°C° 0 mm 9 mps 717 mmHg 47%
    17:00 +17°C° 0 mm 8 mps 717 mmHg 47%
    18:00 +16°C° 0 mm 7 mps 718 mmHg 51%
    19:00 +14°C° 0 mm 5 mps 718 mmHg 55%
    20:00 +13°C° 0 mm 4 mps 719 mmHg 59%
    21:00 +12°C° 0 mm 4 mps 719 mmHg 60%
    22:00 +11°C° 0 mm 4 mps 719 mmHg 60%
    23:00 +9°C° 0 mm 5 mps 719 mmHg 61%

    Tomorrow, 8 April, Wednesday

    Time Temperature Precipitation Wind Pressure Humidity
    00:00 +7°C° 0.2 mm 4 mps 719 mmHg 63%
    01:00 +6°C° 0.2 mm 4 mps 719 mmHg 65%
    02:00 +5°C° 0.2 mm 4 mps 719 mmHg 67%
    03:00 +4°C° 0.4 mm 3 mps 719 mmHg 74%
    04:00 +3°C° 0.4 mm 3 mps 719 mmHg 81%
    05:00 +4°C° 0.4 mm 2 mps 719 mmHg 88%
    06:00 +3°C° 0.5 mm 3 mps 719 mmHg 90%
    07:00 +3°C° 0.5 mm 3 mps 720 mmHg 91%
    08:00 +2°C° 0.5 mm 3 mps 720 mmHg 93%
    09:00 +4°C° 0.2 mm 2 mps 720 mmHg 92%
    10:00 +4°C° 0.2 mm 2 mps 720 mmHg 91%
    11:00 +4°C° 0.2 mm 2 mps 719 mmHg 90%
    12:00 +4°C° 0.4 mm 2 mps 719 mmHg 91%
    13:00 +3°C° 0.4 mm 3 mps 719 mmHg 92%
    14:00 +3°C° 0.4 mm 3 mps 719 mmHg 93%
    15:00 +3°C° 0.7 mm 3 mps 719 mmHg 94%
    16:00 +3°C° 0.7 mm 3 mps 718 mmHg 94%
    17:00 +2°C° 0.7 mm 3 mps 718 mmHg 95%
    18:00 +3°C° 1.6 mm 2 mps 719 mmHg 95%
    19:00 +3°C° 1.6 mm 2 mps 719 mmHg 96%
    20:00 +2°C° 1.6 mm 2 mps 719 mmHg 96%
    21:00 +2°C° 0.7 mm 2 mps 720 mmHg 96%
    22:00 +1°C° 0.7 mm 3 mps 720 mmHg 96%
    23:00 0°C° 0.7 mm 4 mps 720 mmHg 96%

    Day after tomorrow, 9 April, Thursday

    Time Temperature Precipitation Wind Pressure Humidity
    00:00 +1°C° 1.3 mm 3 mps 720 mmHg 97%
    01:00 +1°C° 1.3 mm 3 mps 721 mmHg 97%
    02:00 +1°C° 1.3 mm 2 mps 721 mmHg 97%
    03:00 +1°C° 1.2 mm 2 mps 722 mmHg 97%
    04:00 +1°C° 1.2 mm 2 mps 723 mmHg 98%
    05:00 +1°C° 1.2 mm 2 mps 724 mmHg 98%
    06:00 +1°C° 0.8 mm 2 mps 724 mmHg 98%
    07:00 +1°C° 0.8 mm 2 mps 725 mmHg 98%
    08:00 +1°C° 0.8 mm 2 mps 726 mmHg 98%
    09:00 +2°C° 0.2 mm 2 mps 727 mmHg 90%
    10:00 +3°C° 0.2 mm 2 mps 727 mmHg 82%
    11:00 +4°C° 0.2 mm 2 mps 728 mmHg 74%
    12:00 +4°C° 0 mm 3 mps 728 mmHg 69%
    13:00 +4°C° 0 mm 3 mps 728 mmHg 65%
    14:00 +5°C° 0 mm 3 mps 728 mmHg 61%
    15:00 +5°C° 0 mm 3 mps 728 mmHg 60%
    16:00 +6°C° 0 mm 2 mps 728 mmHg 60%
    17:00 +6°C° 0 mm 2 mps 728 mmHg 59%
    18:00 +5°C° 0 mm 2 mps 728 mmHg 64%
    19:00 +4°C° 0 mm 2 mps 728 mmHg 69%
    20:00 +2°C° 0 mm 2 mps 728 mmHg 73%
    21:00 +2°C° 0 mm 2 mps 728 mmHg 74%
    22:00 +1°C° 0 mm 2 mps 727 mmHg 74%
    23:00 +1°C° 0 mm 2 mps 727 mmHg 75%

    10 April, Friday

    Time Temperature Precipitation Wind Pressure Humidity
    00:00 +1°C° 0 mm 2 mps 727 mmHg 75%
    01:00 -1°C° 0 mm 2 mps 726 mmHg 76%
    02:00 +1°C° 0 mm 1 mps 725 mmHg 76%
    03:00 -1°C° 0 mm 2 mps 725 mmHg 77%
    04:00 -2°C° 0 mm 2 mps 725 mmHg 78%
    05:00 -2°C° 0 mm 2 mps 724 mmHg 78%
    06:00 0°C° 0 mm 3 mps 724 mmHg 73%
    07:00 0°C° 0 mm 4 mps 724 mmHg 68%
    08:00 +2°C° 0 mm 5 mps 724 mmHg 64%
    09:00 +3°C° 0 mm 6 mps 723 mmHg 60%
    10:00 +5°C° 0 mm 6 mps 723 mmHg 55%
    11:00 +6°C° 0 mm 7 mps 722 mmHg 51%
    12:00 +8°C° 0 mm 6 mps 722 mmHg 50%
    13:00 +9°C° 0 mm 6 mps 721 mmHg 50%
    14:00 +10°C° 0 mm 5 mps 721 mmHg 49%
    15:00 +10°C° 0 mm 5 mps 720 mmHg 50%
    16:00 +11°C° 0 mm 4 mps 720 mmHg 52%
    17:00 +11°C° 0 mm 4 mps 719 mmHg 53%
    18:00 +9°C° 0 mm 3 mps 719 mmHg 60%
    19:00 +8°C° 0 mm 3 mps 719 mmHg 67%
    20:00 +6°C° 0 mm 2 mps 719 mmHg 73%
    21:00 +6°C° 0 mm 2 mps 718 mmHg 75%
    22:00 +6°C° 0 mm 1 mps 718 mmHg 77%
    23:00 +5°C° 0 mm 1 mps 718 mmHg 79%

    11 April, Saturday

    Time Temperature Precipitation Wind Pressure Humidity
    00:00 +6°C° 0 mm 1 mps 717 mmHg 77%
    01:00 +5°C° 0 mm 2 mps 717 mmHg 75%
    02:00 +6°C° 0 mm 2 mps 717 mmHg 73%
    03:00 +6°C° 0 mm 2 mps 717 mmHg 70%
    04:00 +6°C° 0 mm 2 mps 717 mmHg 68%
    05:00 +6°C° 0 mm 2 mps 717 mmHg 66%
    06:00 +7°C° 0 mm 2 mps 717 mmHg 62%
    07:00 +9°C° 0 mm 2 mps 718 mmHg 58%
    08:00 +10°C° 0 mm 3 mps 718 mmHg 54%
    09:00 +13°C° 0 mm 2 mps 718 mmHg 49%
    10:00 +15°C° 0 mm 2 mps 719 mmHg 43%
    11:00 +17°C° 0 mm 2 mps 719 mmHg 38%
    12:00 +19°C° 0 mm 2 mps 719 mmHg 35%
    13:00 +20°C° 0 mm 2 mps 719 mmHg 32%
    14:00 +22°C° 0 mm 1 mps 719 mmHg 29%
    15:00 +21°C° 0 mm 2 mps 719 mmHg 30%
    16:00 +21°C° 0 mm 2 mps 718 mmHg 32%
    17:00 +21°C° 0 mm 2 mps 718 mmHg 33%
    18:00 +19°C° 0 mm 2 mps 718 mmHg 41%
    19:00 +16°C° 0 mm 2 mps 717 mmHg 49%
    20:00 +14°C° 0 mm 2 mps 717 mmHg 57%
    21:00 +14°C° 0 mm 2 mps 717 mmHg 56%
    22:00 +13°C° 0 mm 3 mps 717 mmHg 56%
    23:00 +12°C° 0 mm 3 mps 717 mmHg 55%

    12 April, Sunday

    Time Temperature Precipitation Wind Pressure Humidity
    00:00 +12°C° 0 mm 3 mps 717 mmHg 54%
    01:00 +12°C° 0 mm 3 mps 716 mmHg 52%
    02:00 +12°C° 0 mm 3 mps 716 mmHg 51%
    03:00 +13°C° 0 mm 2 mps 716 mmHg 50%
    04:00 +13°C° 0 mm 2 mps 715 mmHg 50%
    05:00 +13°C° 0 mm 2 mps 715 mmHg 50%
    06:00 +14°C° 0 mm 2 mps 715 mmHg 49%
    07:00 +15°C° 0 mm 2 mps 715 mmHg 49%
    08:00 +16°C° 0 mm 2 mps 715 mmHg 49%
    09:00 +16°C° 0.1 mm 2 mps 715 mmHg 50%
    10:00 +17°C° 0.1 mm 2 mps 715 mmHg 51%
    11:00 +18°C° 0.1 mm 2 mps 715 mmHg 52%
    12:00 +18°C° 0.3 mm 2 mps 714 mmHg 55%
    13:00 +18°C° 0.3 mm 2 mps 714 mmHg 59%
    14:00 +17°C° 0.3 mm 2 mps 714 mmHg 62%
    15:00 +17°C° 0.1 mm 2 mps 713 mmHg 62%
    16:00 +17°C° 0.1 mm 3 mps 713 mmHg 63%
    17:00 +17°C° 0.1 mm 3 mps 713 mmHg 63%
    18:00 +17°C° 0 mm 3 mps 712 mmHg 63%
    19:00 +17°C° 0 mm 3 mps 712 mmHg 64%
    20:00 +16°C° 0 mm 3 mps 711 mmHg 65%
    21:00 +17°C° 0.1 mm 3 mps 712 mmHg 67%
    22:00 +17°C° 0.1 mm 3 mps 712 mmHg 69%
    23:00 +17°C° 0.1 mm 3 mps 712 mmHg 72%
    Show more